Weather observations for the past three days for
Topeka, Philip Billard Municipal Airport
Imperial (Metric)
Date Time (cdt) Wind (mph) Vis. (mi.) Weather Sky Cond. Temperature (ºF) Relative Humidity Wind Chill (°F) Heat Index (°F) Pressure Precipitation (in)
Air Dwpt 6 hour altimeter (in) sea level (mb) 1 hr 3 hr 6 hr
Max. Min.
22 19:53 SW 7 G 18 10.00 Fair CLR 93 72 50% 101 29.77 1007.0
22 18:53 Vrbl 5 10.00 Fair CLR 93.9 73.9 97 91.9 52% 104 29.78 1007.1
22 17:53 SW 13 G 24 10.00 Mostly Cloudy BKN070 95 71.1 46% 102 29.78 1007.3
22 16:53 SW 17 G 32 10.00 Partly Cloudy FEW060 SCT075 97 70 42% 104 29.8 1007.8
22 15:53 SW 15 G 25 10.00 A Few Clouds FEW060 96.1 72 46% 105 29.81 1008.1
22 14:53 SW 17 G 31 10.00 A Few Clouds FEW055 96.1 70 43% 103 29.82 1008.5
22 13:53 SW 20 G 37 10.00 Fair CLR 95 70 44% 101 29.83 1009.0
22 12:53 S 17 G 29 10.00 Fair CLR 91 71.1 93 80.1 52% 98 29.84 1009.2
22 11:53 S 14 G 31 10.00 Fair CLR 90 71.1 54% 96 29.85 1009.8
22 10:53 S 15 G 23 10.00 Fair CLR 87.1 70 57% 92 29.86 1010.0
22 09:53 S 15 G 28 10.00 Fair CLR 84.9 69.1 59% 89 29.89 1010.9
22 08:53 S 12 G 21 10.00 Fair CLR 82 68 63% 85 29.9 1011.5
22 07:53 S 10 G 20 10.00 Fair CLR 81 66.9 62% 83 29.91 1011.7
22 06:53 S 12 G 23 10.00 Fair CLR 80.1 66.9 81 80.1 64% 82 29.92 1012.1
22 05:53 S 12 G 24 10.00 A Few Clouds FEW120 80.1 66 62% 82 29.93 1012.3
22 04:53 S 13 G 21 10.00 Fair CLR 81 66 61% 83 29.94 1012.8
22 03:53 S 13 G 23 10.00 Fair CLR 81 66 61% 83 29.96 1013.5
22 02:53 S 14 G 23 10.00 Fair CLR 81 66 61% 83 29.97 1013.8
22 01:53 S 9 10.00 Fair CLR 81 66.9 62% 83 29.99 1014.6
22 00:53 S 9 10.00 Fair CLR 81 68 91 81 65% 84 30 1014.8
21 23:53 S 13 G 20 10.00 Fair CLR 82 69.1 65% 85 29.99 1014.5
21 22:53 S 10 10.00 Fair CLR 82.9 69.1 63% 87 30 1014.7
21 21:53 S 9 10.00 Fair CLR 84 69.1 61% 88 29.99 1014.5
21 20:53 S 8 10.00 Fair CLR 86 70 59% 91 29.98 1014.1
21 19:53 S 12 10.00 Fair CLR 89.1 70 53% 94 29.99 1014.4
21 18:53 S 10 10.00 Fair CLR 91 69.1 91.9 82 49% 96 29.99 1014.6
21 17:53 S 13 10.00 A Few Clouds FEW090 90 70 52% 95 30.01 1015.4
21 16:53 S 12 10.00 A Few Clouds FEW060 91 71.1 52% 98 30.04 1016.2
21 15:53 S 8 G 17 10.00 Partly Cloudy FEW039 SCT090 91 72 54% 99 30.06 1016.8
21 14:53 SW 10 10.00 Partly Cloudy SCT036 SCT095 90 75 62% 100 30.09 1017.9
21 13:53 W 15 G 23 8.00 Light Rain SCT036 SCT060 BKN090 84 73 70% 90 30.12 1018.8
21 12:53 SW 13 G 23 10.00 Partly Cloudy FEW032 SCT042 88 72 89.1 77 59% 95 30.12 1019.0
21 11:53 SW 14 G 20 10.00 A Few Clouds FEW034 88 72 59% 95 30.14 1019.7
21 10:53 S 10 G 22 10.00 Fair CLR 84.9 73 68% 92 30.15 1020.1
21 09:53 S 12 10.00 Fair CLR 82 72 72% 87 30.16 1020.2
21 08:53 S 10 10.00 Fair CLR 82 71.1 69% 86 30.17 1020.5
21 07:53 S 6 10.00 Fair CLR 78.1 70 76% 80 30.18 1020.9
21 06:53 SE 3 10.00 Fair CLR 77 70 77 73.9 79% 79 30.17 1020.6
21 05:53 Calm 10.00 Fair CLR 75 69.1 82% 75 30.16 1020.5
21 04:53 E 3 10.00 Fair CLR 75 69.1 82% 75 30.16 1020.4
21 03:53 SE 3 10.00 Fair CLR 75.9 69.1 79% 77 30.16 1020.3
21 02:53 Calm 10.00 Partly Cloudy SCT095 75.9 69.1 79% 77 30.17 1020.6
21 01:53 E 3 10.00 Mostly Cloudy BKN100 75.9 69.1 79% 77 30.18 1021.1
21 00:53 NE 3 10.00 Fair CLR 75.9 70 89.1 75 82% 77 30.19 1021.2
20 23:53 Calm 10.00 Fair CLR 75.9 70 82% 77 30.18 1021.0
20 22:53 SE 5 10.00 Fair CLR 78.1 69.1 74% 80 30.16 1020.4
20 21:53 SE 5 10.00 Fair CLR 80.1 70 71% 83 30.15 1020.0
20 20:53 SE 5 10.00 Fair CLR 82 70 67% 86 30.14 1019.6
20 19:53 SE 7 10.00 Fair CLR 86 69.1 57% 90 30.13 1019.4
20 18:53 S 9 10.00 A Few Clouds FEW095 89.1 69.1 91.9 87.1 52% 94 30.14 1019.5
20 17:53 SE 10 10.00 Mostly Cloudy FEW055 SCT070 BKN095 89.1 70 53% 94 30.15 1020.0
20 16:53 S 10 10.00 A Few Clouds FEW080 90 69.1 50% 95 30.17 1020.7
20 15:53 S 10 G 17 10.00 Fair CLR 91.9 69.1 47% 97 30.19 1021.4
20 14:53 SE 12 10.00 Fair CLR 91 69.1 49% 96 30.21 1022.0
20 13:53 S 8 10.00 Partly Cloudy FEW070 SCT095 87.1 71.1 59% 93 30.23 1022.7
20 12:53 S 9 10.00 Mostly Cloudy SCT033 SCT042 BKN055 88 71.1 88 73.9 57% 94 30.24 1023.1
20 11:53 SW 6 10.00 A Few Clouds FEW024 FEW030 86 72 63% 92 30.25 1023.4
20 10:53 S 7 10.00 A Few Clouds FEW019 82.9 72 70% 88 30.25 1023.6
20 09:53 Calm 10.00 Fair CLR 80.1 71.1 74% 84 30.25 1023.5
20 08:53 SE 5 10.00 Mostly Cloudy BKN008 77 72 85% 78 30.25 1023.6
20 07:53 SE 9 7.00 Overcast OVC006 75 71.1 88% 75 30.24 1023.3
20 06:53 E 5 3.00 Fog/Mist OVC003 73.9 71.1 73.9 72 91% 30.24 1023.1
20 05:53 NE 5 7.00 Overcast OVC006 73 71.1 94% 30.23 1022.9
20 04:53 N 5 10.00 Overcast OVC005 73 71.1 94% 30.22 1022.5
20 03:53 NE 3 10.00 Overcast OVC005 73 71.1 94% 30.21 1022.4
20 02:53 N 3 10.00 Overcast OVC006 73 70 90% 30.21 1022.3
20 01:53 NW 3 9.00 Overcast OVC004 73 70 90% 30.22 1022.6
20 00:53 Calm 10.00 Mostly Cloudy FEW005 BKN080 72 70 73.9 72 94% 30.22 1022.6
19 23:53 N 3 10.00 Mostly Cloudy FEW008 BKN050 BKN070 72 70 94% 30.22 1022.5
19 22:53 NE 3 10.00 Overcast OVC009 73 70 90% 30.21 1022.3
19 21:53 N 5 10.00 Overcast OVC008 73 70 90% 30.2 1022.0
19 20:53 NE 6 10.00 Overcast OVC009 73 70 90% 30.19 1021.5
Date Time (cdt) Wind (mph) Vis. (mi.) Weather Sky Cond. Air Dwpt Max. Min. Relative Humidity Wind Chill (°F) Heat Index (°F) altimeter (in) sea level (mb) 1 hr 3 hr 6 hr
6 hour
Temperature (ºF) Pressure Precipitation (in)